Weather History for Glasgow, United Kingdom

Change the Weather History Date:

Sunday, July 21, 2013

  Actual Average Record
Temperature  
Mean Temperature 64 °F -  
Max Temperature 71 °F 65 °F 78 °F (2000)
Min Temperature 57 °F 49 °F 44 °F (2008)
Degree Days  
Heating Degree Days 1    
Growing Degree Days 14 (Base 50)    
Moisture  
Dew Point 55 °F    
Average Humidity 75    
Maximum Humidity 88    
Minimum Humidity 57    
Precipitation  
Precipitation 0.00 in - - ()
Sea Level Pressure  
Sea Level Pressure 30.20 in    
Wind  
Wind Speed 11 mph ()    
Max Wind Speed 17 mph    
Max Gust Speed -    
Visibility 6.2 miles    
Events      
Averages and records for this station are not official NWS values.
T = Trace of Precipitation, MM = Missing Value Source: Averaged Metar Reports

Daily Weather History Graph

Daily Weather History Graph

Search for Another Location

Airport:

Trip Planner

Search our weather history database for the weather conditions in past years. The results will help you decide how hot, cold, wet, or windy it might be!

Date:

Astronomy

Jul. 21, 2013 Rise Set
Actual Time 5:03 AM BST 9:44 PM BST
Civil Twilight 4:10 AM BST 10:36 PM BST
Nautical Twilight 2:39 AM BST 12:04 AM BST
Astronomical Twilight Sun does not rise Sun does not rise
Moon 8:21 PM BST (7/21) 3:36 AM BST (7/21)
Length of Visible Light 18h 26m
Length of Day
16h 41m
Waxing Gibbous, 97% of the Moon is Illuminated
Jul 21
Waxing Gibbous
Jul 22
Full
Jul 29
Last Quarter
Aug 6
New
Aug 14
First Quarter

Hourly Weather History & Observations

Time (BST) Temp. Dew Point Humidity Pressure Visibility Wind Dir Wind Speed Gust Speed Precip Events Conditions
12:20 AM 59.0 °F 55.4 °F 88% 30.27 in - East 12.7 mph - N/A   Clear
12:50 AM 59.0 °F 55.4 °F 88% 30.27 in 6.2 mi East 10.4 mph - N/A   Scattered Clouds
1:20 AM 59.0 °F 55.4 °F 88% 30.27 in 6.2 mi ENE 12.7 mph - N/A   Mostly Cloudy
1:50 AM 59.0 °F 55.4 °F 88% 30.27 in 6.2 mi East 11.5 mph - N/A   Mostly Cloudy
2:20 AM 59.0 °F 55.4 °F 88% 30.27 in 6.2 mi East 8.1 mph - N/A   Overcast
2:50 AM 59.0 °F 55.4 °F 88% 30.27 in 6.2 mi ENE 10.4 mph - N/A   Overcast
3:20 AM 59.0 °F 53.6 °F 82% 30.27 in 6.2 mi ENE 10.4 mph - N/A   Overcast
3:50 AM 59.0 °F 53.6 °F 82% 30.27 in 6.2 mi ENE 12.7 mph - N/A   Overcast
4:20 AM 57.2 °F 53.6 °F 88% 30.27 in 6.2 mi ENE 11.5 mph - N/A   Mostly Cloudy
4:50 AM 57.2 °F 51.8 °F 82% 30.27 in 6.2 mi ENE 9.2 mph - N/A   Overcast
5:20 AM 57.2 °F 51.8 °F 82% 30.24 in 6.2 mi NE 8.1 mph - N/A   Overcast
5:50 AM 59.0 °F 51.8 °F 77% 30.24 in 6.2 mi ENE 9.2 mph - N/A   Mostly Cloudy
6:20 AM 59.0 °F 51.8 °F 77% 30.24 in 6.2 mi ENE 10.4 mph - N/A   Mostly Cloudy
6:50 AM 59.0 °F 53.6 °F 82% 30.24 in 6.2 mi ENE 10.4 mph - N/A   Mostly Cloudy
7:20 AM 59.0 °F 53.6 °F 82% 30.24 in 6.2 mi ENE 10.4 mph - N/A   Mostly Cloudy
7:50 AM 59.0 °F 53.6 °F 82% 30.24 in 6.2 mi East 10.4 mph - N/A   Mostly Cloudy
8:20 AM 59.0 °F 53.6 °F 82% 30.24 in 6.2 mi East 10.4 mph - N/A   Mostly Cloudy
8:50 AM 59.0 °F 53.6 °F 82% 30.24 in 6.2 mi East 11.5 mph - N/A   Mostly Cloudy
9:20 AM 59.0 °F 53.6 °F 82% 30.24 in 6.2 mi ENE 12.7 mph - N/A   Mostly Cloudy
9:50 AM 59.0 °F 53.6 °F 82% 30.24 in 6.2 mi ENE 10.4 mph - N/A   Mostly Cloudy
10:20 AM 60.8 °F 53.6 °F 77% 30.24 in 6.2 mi ENE 10.4 mph - N/A   Mostly Cloudy
10:50 AM 60.8 °F 53.6 °F 77% 30.24 in 6.2 mi ENE 11.5 mph - N/A   Mostly Cloudy
11:20 AM 62.6 °F 53.6 °F 72% 30.21 in 6.2 mi ENE 12.7 mph - N/A   Mostly Cloudy
11:50 AM 62.6 °F 53.6 °F 72% 30.21 in 6.2 mi NE 13.8 mph - N/A   Mostly Cloudy
12:20 PM 66.2 °F 53.6 °F 64% 30.21 in 6.2 mi NE 16.1 mph - N/A   Scattered Clouds
12:50 PM 66.2 °F 55.4 °F 68% 30.18 in 6.2 mi ENE 16.1 mph - N/A   Scattered Clouds
1:20 PM 68.0 °F 55.4 °F 64% 30.18 in 6.2 mi ENE 13.8 mph - N/A   Partly Cloudy
1:50 PM 69.8 °F 55.4 °F 60% 30.18 in - ENE 12.7 mph - N/A   Clear
2:20 PM 69.8 °F 55.4 °F 60% 30.18 in - ENE 12.7 mph - N/A   Clear
2:50 PM 71.6 °F 55.4 °F 57% 30.15 in - ENE 13.8 mph - N/A   Clear
3:20 PM 71.6 °F 57.2 °F 60% 30.15 in - NE 15.0 mph - N/A   Clear
3:50 PM 71.6 °F 57.2 °F 60% 30.15 in - NE 15.0 mph - N/A   Clear
4:20 PM 71.6 °F 57.2 °F 60% 30.12 in - ENE 16.1 mph - N/A   Clear
4:50 PM 71.6 °F 57.2 °F 60% 30.12 in - ENE 15.0 mph - N/A   Clear
5:20 PM 71.6 °F 57.2 °F 60% 30.12 in - East 15.0 mph - N/A   Clear
5:50 PM 69.8 °F 57.2 °F 64% 30.12 in - ENE 17.3 mph - N/A   Clear
6:20 PM 68.0 °F 55.4 °F 64% 30.12 in - ENE 17.3 mph - N/A   Clear
6:50 PM 68.0 °F 55.4 °F 64% 30.12 in - ENE 15.0 mph - N/A   Clear
7:20 PM 66.2 °F 55.4 °F 68% 30.12 in - ENE 16.1 mph - N/A   Clear
7:50 PM 66.2 °F 55.4 °F 68% 30.12 in - ENE 16.1 mph - N/A   Clear
8:20 PM 64.4 °F 55.4 °F 73% 30.12 in - ENE 16.1 mph - N/A   Clear
8:50 PM 62.6 °F 55.4 °F 77% 30.12 in - ENE 13.8 mph - N/A   Clear
9:20 PM 62.6 °F 55.4 °F 77% 30.12 in 6.2 mi ENE 15.0 mph - N/A   Partly Cloudy
9:50 PM 60.8 °F 55.4 °F 82% 30.12 in 6.2 mi East 11.5 mph - N/A   Partly Cloudy
10:20 PM 60.8 °F 55.4 °F 82% 30.15 in 6.2 mi ENE 10.4 mph - N/A   Partly Cloudy
10:50 PM 60.8 °F 55.4 °F 82% 30.15 in 6.2 mi ENE 8.1 mph - N/A   Mostly Cloudy
11:20 PM 60.8 °F 55.4 °F 82% 30.15 in 6.2 mi ENE 9.2 mph - N/A   Mostly Cloudy
11:50 PM 60.8 °F 55.4 °F 82% 30.12 in 6.2 mi ENE 8.1 mph - N/A   Mostly Cloudy